DW7779 Weather Reports


time (UTC)temp
C
wind
direction
speed
KPH
gust
KPH
rain 1hr
cm
rain 24hr
cm
rain mn
cm
humidity
%
barometer
mb
20260505101504 13 0.0 0.0 0.00 0.00 0.00 81 1021.7
20260505100003 13 0.0 0.0 0.00 0.00 0.00 80 1021.7
20260505094502 13 0.0 0.0 0.00 0.00 0.00 80 1021.7
20260505093002 13 0.0 1.6 0.00 0.00 0.00 79 1021.7
20260505091600 13 0.0 3.2 0.00 0.00 0.00 79 1021.7
20260505090101 13 0.0 0.0 0.00 0.00 0.00 79 1021.6
20260505084557 13 0.0 1.6 0.00 0.00 0.00 78 1021.4
20260505083105 13 0.0 1.6 0.00 0.00 0.00 78 1021.1
20260505081556 13 0.0 1.6 0.00 0.00 0.00 78 1021.0
20260505080054 13 0.0 1.6 0.00 0.00 0.00 77 1020.9
20260505074550 13 0.0 1.6 0.00 0.00 0.00 77 1020.8
20260505073048 14 0.0 1.6 0.00 0.00 0.00 75 1020.5
20260505071546 15 0.0 6.4 0.00 0.00 0.00 76 1020.4
20260505070050 15 1.6 4.8 0.00 0.00 0.00 74 1020.3
20260505064556 15 0.0 3.2 0.00 0.00 0.00 73 1020.0
20260505063049 15 0.0 3.2 0.00 0.00 0.00 73 1019.9
20260505061543 15 0.0 6.4 0.00 0.00 0.00 73 1019.9
20260505060039 15 1.6 6.4 0.00 0.00 0.00 73 1019.8
20260505054538 15 0.0 8.0 0.00 0.00 0.00 75 1019.7
20260505053035 15 1.6 4.8 0.00 0.00 0.00 76 1019.5
20260505051535 15 1.6 8.0 0.00 0.00 0.00 77 1019.4
20260505041535 14 0.0 3.2 0.00 0.00 0.00 77 1019.1
20260505040031 14 1.6 6.4 0.00 0.00 0.00 78 1019.0
20260505034534 14 3.2 12.9 0.00 0.00 0.00 77 1019.1
20260505033032 15 0.0 6.4 0.00 0.00 0.00 76 1019.1
20260505031528 15 4.8 11.3 0.00 0.00 0.00 75 1019.0
20260505030027 15 1.6 4.8 0.00 0.00 0.00 74 1019.0
20260505024538 15 1.6 4.8 0.00 0.00 0.00 73 1019.2
20260505023025 15 1.6 9.7 0.00 0.00 0.00 72 1019.2
20260505021525 15 1.6 9.7 0.00 0.00 0.00 70 1019.2
20260505020024 15 1.6 9.7 0.00 0.00 0.00 70 1019.4
20260505014525 15 1.6 8.0 0.00 0.00 0.00 68 1019.4
20260505013024 16 1.6 8.0 0.00 0.00 0.00 69 1019.4
20260505011520 15 1.6 9.7 0.00 0.00 0.00 71 1019.5
20260505010019 15 3.2 9.7 0.00 0.00 0.00 70 1019.5
20260505004517 15 3.2 8.0 0.00 0.00 0.00 71 1019.3
20260505003015 13 3.2 9.7 0.00 0.00 0.00 73 1019.3
20260505001509 13 3.2 14.5 0.00 0.00 0.00 76 1019.3
20260505000024 13 4.8 14.5 0.00 0.00 0.00 76 1019.3
20260504234507 13 1.6 8.0 0.00 0.00 0.00 78 1019.0
20260504233003 13 6.4 12.9 0.00 0.00 0.00 79 1018.8
20260504231605 12 8.0 16.1 0.00 0.00 0.00 81 1018.7
20260504230100 12 1.6 11.3 0.00 0.00 0.00 84 1018.5
20260504224558 12 3.2 9.7 0.00 0.00 0.00 86 1018.4
20260504223053 11 3.2 12.9 0.00 0.00 0.00 88 1018.2
20260504221558 11 3.2 9.7 0.00 0.00 0.00 90 1018.1
20260504220049 11 1.6 6.4 0.00 0.00 0.00 92 1017.8
20260504214546 10 4.8 11.3 0.00 0.00 0.00 92 1017.1
20260504213043 10 4.8 9.7 0.00 0.00 0.00 92 1017.1
20260504211548 10 3.2 8.0 0.00 0.00 0.00 92 1016.8
20260504210059 11 3.2 8.0 0.00 0.00 0.00 92 1016.6
20260504204543 11 1.6 6.4 0.00 0.00 0.00 92 1016.4
20260504203035 11 1.6 9.7 0.00 0.00 0.00 92 1016.2
20260504201530 11 3.2 8.0 0.00 0.00 0.00 92 1016.0
20260504200029 11 1.6 6.4 0.00 0.00 0.00 91 1015.6
20260504194541 11 0.0 4.8 0.00 0.00 0.00 91 1015.6
20260504193026 11 1.6 9.7 0.00 0.00 0.00 91 1015.4
20260504191526 11 0.0 6.4 0.00 0.00 0.00 91 1015.2
20260504190021 11 1.6 9.7 0.00 0.00 0.00 91 1014.9
20260504184520 11 1.6 9.7 0.00 0.00 0.00 91 1014.8
20260504183016 11 4.8 14.5 0.00 0.00 0.00 91 1014.5
20260504181515 11 1.6 8.0 0.00 0.00 0.00 92 1014.4
20260504180018 11 3.2 11.3 0.00 0.00 0.00 91 1014.2
20260504174510 11 4.8 8.0 0.00 0.00 0.00 90 1014.2
20260504173014 12 6.4 17.7 0.00 0.00 0.00 90 1014.0
20260504171506 11 4.8 17.7 0.00 0.00 0.00 90 1013.9